Regional Weather Roundup
Issued by NWS

Home | Current Version | Previous Version | Text Only | Print | Product List | Glossary On
Versions: 1 2 3 4 5 6 7 8 9 10 11 12 13 14 15 16 17 18 19 20 21 22 23 24 25 26 27 28 29 30 31 32 33 34 35 36 37 38 39 40 41 42 43 44 45 46 47 48 49 50
000
ASUS45 KPSR 220200
RWRAZ

PRELIMINARY ARIZONA REGIONAL HOURLY WEATHER ROUNDUP
NATIONAL WEATHER SERVICE PHOENIX AZ
700 PM MST FRI NOV 21 2014

NOTE: FAIR INDICATES FEW OR NO CLOUDS BELOW 12,000 FEET WITH NO
SIGNIFICANT WEATHER AND/OR OBSTRUCTIONS TO VISIBILITY.

AZZ001>003-036-220300-
NORTHWEST ARIZONA

CITY           SKY/WX    TMP DP  RH WIND       PRES   REMARKS
KINGMAN        CLEAR     48  17  29 E8        30.00R
$$

AZZ004>008-015-016-018-220300-
NORTH CENTRAL ARIZONA

CITY           SKY/WX    TMP DP  RH WIND       PRES   REMARKS
GRAND CANYON   CLEAR     26  11  52 NE3       30.08R
PRESCOTT       CLEAR     42  21  43 S6        30.02R
FLAGSTAFF      NOT AVBL
PAYSON         CLEAR     46  19  34 E6        30.04R
$$

AZZ009>014-017-220300-
NORTHEAST ARIZONA

CITY           SKY/WX    TMP DP  RH WIND       PRES   REMARKS
WINSLOW        NOT AVBL
SAINT JOHNS    PTCLDY    38  24  57 S5        30.03R HAZE    WCI  34
SHOW LOW       PTCLDY    39  18  41 CALM      30.07R
$$

AZZ023-220300-
GREATER PHOENIX AREA

CITY           SKY/WX    TMP DP  RH WIND       PRES   REMARKS
PHOENIX        PTCLDY    65  35  33 NW8       29.90R
BUCKEYE          N/A     55  27  33 N8        29.93R
GLENDALE       MOCLDY    61  30  31 NW7       29.92R
DEER VALLEY    CLEAR     58  23  26 CALM      29.91R
SCOTTSDALE     CLEAR     60  24  25 NW6       29.93R
MESA-GATEWAY   PTCLDY    57  27  30 CALM      29.92R
CHANDLER       PTCLDY    59  32  36 CALM      29.91R
$$

AZZ027-028-220300-
SOUTHWEST MARICOPA COUNTY AND PINAL COUNTY

CITY           SKY/WX    TMP DP  RH WIND       PRES   REMARKS
CASA GRANDE    CLEAR     55  19  24 CALM      29.92R
$$

AZZ503-504-507>509-220300-
SOUTHEAST ARIZONA

CITY           SKY/WX    TMP DP  RH WIND       PRES   REMARKS
TUCSON         CLOUDY    56  37  49 W12G23    29.97R
RYAN FIELD       N/A     61  46  59 S14G23    29.98R
NOGALES        CLOUDY    53  34  48 NW13G24   29.97R
SIERRA VISTA   CLOUDY    52  23  32 W10       29.99R
SAFFORD        MOCLDY    51  23  33 N7        29.94R
$$

AZZ020-021-025-026-031-220300-
SOUTHWEST ARIZONA

CITY           SKY/WX    TMP DP  RH WIND       PRES   REMARKS
YUMA           NOT AVBL
$$

CAZ031-033-041-043-047-048-061-220300-
SOUTHERN CALIFORNIA

CITY           SKY/WX    TMP DP  RH WIND       PRES   REMARKS
DOWNTOWN L.A.  CLEAR     65  49  56 CALM      29.97R
L.A. AIRPORT   PTCLDY    65  55  70 SW5       29.98R
SAN DIEGO      PTCLDY    65  53  65 NW5       30.00R
BURBANK        CLEAR     65  44  46 S5        29.98R
ONTARIO        PTCLDY    64  47  53 SW8       29.98R
RIVERSIDE      CLEAR     63  48  58 CALM      29.99R
PALM SPRINGS   CLEAR     63  44  50 CALM      29.96R
EL CENTRO NAS  PTCLDY    65  43  44 SW3       29.91R
IMPERIAL       CLEAR     65  43  44 CALM      29.90R
BLYTHE         CLEAR     64  32  30 W3        29.92R
$$

NVZ020-UTZ003-220300-
SOUTHERN NEVADA-UTAH

CITY           SKY/WX    TMP DP  RH WIND       PRES   REMARKS
LAS VEGAS      NOT AVBL
SALT LAKE CITY PTCLDY    37  30  75 CALM      30.00S
$$

NMZ009-TXZ055-220300-
NEW MEXICO-WEST TEXAS

CITY           SKY/WX    TMP DP  RH WIND       PRES   REMARKS
ALBUQUERQUE    CLOUDY    43  18  36 CALM      30.04R
EL PASO        CLOUDY    60  28  29 N9        29.94R
$$


........................KEY........................
SKY/WX - SKY CONDITION/WEATHER
TMP    - TEMPERATURE IN FAHRENHEIT
DP     - DEW POINT IN FAHRENHEIT
RH     - RELATIVE HUMIDITY IN PERCENT
WIND   - DIRECTION AND SPEED IN MILES PER HOUR (MPH)
VRB    - VARIABLE WIND DIRECTION
PRES   - MEAN SEA LEVEL PRESSURE IN INCHES OF MERCURY
         F - FALLING PRESSURE   R - RISING PRESSURE
         S - STEADY PRESSURE
VSB    - VISIBILITY IN MILES
HX     - HEAT INDEX IN FAHRENHEIT
WCI    - WIND CHILL INDEX IN FAHRENHEIT
TC     - TEMPERATURE IN CELSIUS WHICH IS ALSO KNOWN AS
         TEMPERATURE IN CENTIGRADE
AFB    - AIR FORCE BASE
         LUKE AFB IS LUKE AIR FORCE BASE
         DAVIS-MONTHAN IS DAVIS-MONTHAN AIR FORCE BASE
NAS    - NAVAL AIR STATION
         EL CENTRO NAS IS EL CENTRO NAVAL AIR STATION
N/A    - NOT AVAILABLE


USA.gov is the U.S. government's official web portal to all federal, state and local government web resources and services.